Wind_Speed
17 16 15 14 14 14 14 14 14 14 13 13 13 13 13 13 12 12 11 11 11 11 10 10 11 10 10 10 10 10 10 10 9 9 9 9 9 9 9 9 8 9 9
19 18 17 16 16 15 15 15 15 15 14 15 15 15 15 15 14 14 13 13 13 12 12 12 11 11 11 11 11 11 11 11 11 11 11 11 11 11 11 11 10 10 11
21 20 20 19 18 18 17 16 16 16 16 16 16 16 17 16 16 16 15 15 14 14 14 14 14 14 14 13 13 13 13 13 13 13 13 12 12 12 12 13 13 13 13
23 22 22 21 20 20 19 18 18 18 18 18 18 17 18 18 18 17 17 17 16 16 15 15 15 15 15 15 15 15 15 15 15 15 15 15 15 15 15 15 15 15 15
24 24 23 23 22 22 21 20 20 19 19 19 19 19 19 19 20 19 19 19 18 18 18 17 17 17 17 17 17 17 16 17 17 17 17 18 17 17 17 17 17 17 17
25 24 24 24 23 22 22 21 21 21 21 21 21 21 21 21 21 21 21 21 20 20 20 19 19 19 19 19 19 19 19 19 19 19 19 19 20 20 20 20 20 20 20
26 25 25 25 25 24 24 24 24 24 23 23 23 23 23 23 23 23 23 23 23 23 22 22 22 21 21 21 21 21 21 21 22 21 21 21 22 22 22 22 22 22 22
27 27 26 26 27 26 26 26 26 25 25 25 26 25 25 24 25 25 25 25 25 25 24 24 24 23 24 24 24 24 24 24 24 24 24 24 23 24 24 24 24 24 24
28 29 28 27 27 28 28 28 27 27 27 27 27 27 26 26 26 26 27 27 27 27 27 26 26 26 26 26 26 26 26 26 26 26 26 26 26 26 26 26 26 25 25
30 31 30 29 29 29 29 29 29 29 29 29 29 29 29 28 27 27 28 28 29 29 28 28 28 28 28 28 27 27 27 27 27 27 27 28 27 27 27 27 27 27 27
32 32 32 31 31 31 31 31 31 31 31 31 31 31 31 31 30 29 30 30 30 30 30 30 29 29 29 28 28 28 28 28 29 29 29 29 29 29 29 28 28 28 29
33 33 33 33 32 32 33 33 33 33 33 33 33 33 32 32 32 32 33 33 32 32 32 31 31 30 30 30 30 30 30 30 30 30 30 31 31 31 31 31 30 30 31
34 34 34 35 34 33 33 35 35 35 35 34 34 34 34 34 34 34 34 34 34 34 33 33 32 32 32 33 33 33 33 33 33 33 32 32 32 33 33 33 32 32 33
37 36 35 36 36 35 35 36 37 36 37 37 36 35 36 36 37 37 36 36 36 36 35 36 35 35 35 35 36 36 35 35 35 35 35 35 35 34 34 35 34 34 35
38 37 37 37 37 37 37 37 39 39 39 38 38 38 38 38 38 39 39 38 38 38 37 37 37 37 38 38 38 38 38 38 38 38 38 37 37 37 37 36 37 37 37
38 39 38 38 38 39 39 39 40 40 41 40 40 40 40 40 40 40 40 40 39 40 39 39 39 39 40 40 40 40 40 40 40 40 40 40 40 40 40 39 39 39 39
39 39 40 39 39 39 40 40 41 41 41 42 41 41 41 41 41 41 41 41 41 41 41 41 41 42 42 42 41 41 41 42 42 41 41 41 41 41 42 42 41 41 40
40 40 40 40 40 40 40 41 41 41 42 43 43 43 42 42 41 42 42 42 42 42 42 43 43 43 44 44 43 43 44 44 44 43 43 43 42 42 43 42 43 42 42
40 40 40 41 41 41 42 42 42 42 43 43 43 44 44 43 43 43 43 44 44 45 45 45 45 45 45 45 44 45 45 45 44 44 44 44 44 44 44 44 44 44 44
40 40 41 41 41 42 42 42 43 43 43 44 44 44 44 45 45 45 45 45 46 46 47 47 47 47 47 47 46 46 46 45 45 45 45 45 45 45 45 45 45 45 45
40 41 42 42 42 42 42 43 44 44 45 45 47 47 46 46 47 47 47 47 48 48 48 49 49 49 49 49 48 48 47 47 47 47 47 47 47 46 46 46 47 47 47
41 42 42 42 43 43 44 45 45 46 47 47 48 49 48 48 49 49 49 49 49 50 50 51 51 51 50 50 50 49 49 49 48 48 48 47 47 48 48 47 47 47 47
39 40 42 42 43 43 45 45 47 48 48 48 47 49 50 50 50 51 51 50 51 52 52 53 52 52 51 51 51 51 51 50 48 47 47 48 48 47 47 47 47 47 47
38 39 41 42 43 44 44 46 47 48 49 49 49 49 51 52 51 52 52 51 52 52 53 53 52 52 52 51 51 51 51 50 49 48 48 48 47 46 46 47 46 46 46
37 39 41 42 43 44 45 46 47 48 48 49 50 51 51 51 52 51 50 51 51 52 52 51 51 51 50 50 50 50 51 50 49 49 47 47 47 46 46 46 45 45 46
36 37 40 42 43 44 45 46 47 47 47 48 49 50 50 50 50 51 49 49 50 50 50 50 50 50 49 48 48 48 49 49 48 48 47 46 46 46 45 44 43 43 43
Wind_Direction
243 243 243 245 248 249 249 249 251 254 255 255 255 255 253 252 252 252 255 260 263 263 262 262 260 261 262 265 268 270 270 268 268 270 272 273 272 273 277 280 285 282 281
243 244 244 244 246 248 249 250 251 253 254 254 256 255 255 253 253 254 257 259 262 264 263 264 261 260 262 264 266 268 270 270 269 270 272 274 274 274 276 278 282 284 281
243 244 244 245 245 246 248 248 248 250 252 253 255 256 256 254 254 256 258 259 261 263 263 262 262 262 262 264 266 267 268 269 269 271 272 273 274 275 277 278 278 280 282
242 243 245 247 247 247 249 246 246 249 251 253 254 256 257 257 257 258 259 260 261 263 264 263 263 263 262 264 266 267 269 269 269 270 272 273 273 275 277 279 279 278 279
243 244 246 248 248 248 247 245 246 248 250 252 255 257 258 258 258 258 260 261 262 264 265 264 263 263 264 266 267 268 270 271 270 271 272 273 274 274 275 278 279 278 278
244 244 245 246 246 246 246 246 246 248 251 252 254 257 259 257 257 258 259 261 263 264 265 264 263 263 264 266 267 269 271 271 272 273 274 274 274 274 275 276 276 277 278
245 245 244 244 246 247 248 248 248 249 251 253 255 258 259 259 257 258 259 260 262 264 265 264 263 264 265 267 268 269 270 271 272 273 273 273 274 275 275 276 275 275 276
245 246 246 246 247 247 249 249 250 250 252 255 257 259 260 261 261 262 261 261 262 264 265 266 265 265 266 268 269 271 272 272 272 272 273 273 274 275 275 275 275 274 275
245 246 247 247 247 248 250 251 251 252 253 256 258 259 260 261 262 262 263 263 264 264 265 266 267 267 268 269 270 271 271 271 272 273 274 274 274 274 274 274 274 273 274
245 246 248 249 249 250 251 252 252 254 256 257 259 259 260 261 261 262 264 265 266 266 267 268 269 269 269 269 271 271 270 271 271 272 274 274 273 274 274 274 274 274 274
246 248 249 250 251 252 253 254 254 255 257 259 260 260 261 261 261 263 265 266 267 268 268 268 268 268 268 268 270 271 270 271 272 272 273 273 273 275 274 273 273 274 275
246 248 251 252 253 253 253 253 255 257 258 260 261 262 262 262 262 263 266 268 267 267 267 267 267 266 268 268 269 270 271 271 272 272 273 274 273 274 274 273 273 274 275
248 249 251 253 254 254 254 254 255 257 259 260 262 263 263 262 263 264 266 267 266 266 267 267 267 268 269 269 269 270 272 271 272 272 272 273 274 273 273 273 273 274 274
248 249 251 254 256 256 256 256 255 256 258 259 261 262 263 263 264 264 266 267 266 267 267 267 267 268 269 269 269 270 271 271 271 272 273 273 273 273 273 273 273 273 274
249 250 252 255 257 258 258 257 257 256 257 260 261 262 263 264 264 264 266 266 266 267 267 266 267 268 269 269 269 269 269 270 271 271 272 272 272 272 273 273 274 273 273
250 252 253 256 258 259 259 258 259 259 259 260 261 261 262 263 263 264 265 265 266 266 266 267 267 268 269 269 269 269 269 270 271 271 271 272 272 271 271 272 273 274 274
252 254 255 257 259 260 260 260 259 260 260 260 261 262 261 261 262 263 264 265 265 265 265 266 267 268 269 269 269 269 270 271 271 271 271 271 272 272 272 272 272 273 273
253 255 256 258 259 260 260 260 260 260 260 261 261 261 261 262 262 262 263 264 265 266 266 266 267 268 269 269 269 270 270 271 272 272 272 271 272 272 272 272 272 273 273
255 256 257 259 260 260 261 261 261 261 260 260 261 260 261 261 262 262 262 263 265 266 267 267 268 269 269 270 270 270 271 271 272 272 272 273 273 272 271 271 272 272 273
256 257 258 259 261 262 263 262 262 261 261 261 261 261 261 261 262 262 262 263 265 266 267 267 268 269 269 270 270 271 271 271 271 272 272 273 273 272 271 271 271 271 272
257 258 260 260 262 263 263 263 263 262 262 261 261 262 263 262 261 261 262 263 265 267 268 268 269 269 270 270 271 271 271 271 271 271 271 271 272 272 271 271 271 270 271
258 259 261 262 262 263 264 264 264 262 261 262 263 262 263 263 263 262 262 263 265 266 267 269 270 269 269 270 271 271 271 271 271 270 270 270 271 271 270 270 270 270 272
260 260 262 262 263 265 265 265 264 263 263 262 262 263 263 264 264 264 264 265 266 267 268 269 269 269 269 270 270 270 270 270 270 270 269 270 270 270 270 270 270 270 271
263 263 263 264 264 265 266 266 265 264 264 263 263 264 264 263 264 264 265 266 268 269 270 270 270 270 269 269 269 269 270 270 270 270 269 269 270 270 270 270 270 270 270
265 265 265 266 266 266 267 267 266 266 265 265 263 264 265 264 264 264 267 268 268 269 270 269 268 269 268 268 268 268 268 268 269 270 269 268 268 268 269 269 269 270 269
266 267 267 268 268 267 268 267 267 266 266 266 265 265 264 264 265 265 267 268 269 270 269 268 268 267 266 267 269 269 268 268 268 269 268 268 268 267 266 266 268 268 269
Height
5844 5844 5846 5846 5847 5848 5848 5849 5849 5850 5851 5851 5852 5852 5853 5853 5853 5853 5854 5854 5853 5853 5853 5853 5853 5853 5854 5854 5853 5853 5853 5853 5852 5852 5852 5852 5851 5850 5850 5849 5849 5848 5848
5840 5841 5842 5843 5844 5845 5846 5847 5847 5848 5848 5849 5849 5850 5850 5851 5851 5851 5851 5851 5851 5851 5851 5851 5851 5851 5851 5851 5851 5851 5851 5851 5850 5850 5850 5850 5849 5849 5848 5848 5847 5847 5846
5836 5838 5839 5840 5841 5842 5843 5844 5844 5845 5846 5846 5847 5847 5848 5848 5848 5849 5849 5849 5849 5849 5849 5849 5849 5849 5849 5849 5849 5849 5849 5849 5848 5848 5848 5847 5847 5847 5846 5846 5845 5845 5844
5832 5834 5835 5836 5837 5838 5840 5840 5841 5842 5843 5843 5844 5844 5845 5845 5845 5846 5846 5846 5846 5846 5846 5846 5846 5846 5846 5846 5846 5846 5846 5846 5846 5845 5845 5845 5844 5844 5844 5843 5843 5842 5841
5828 5829 5831 5832 5833 5834 5836 5837 5838 5839 5839 5840 5840 5841 5841 5841 5842 5842 5842 5843 5843 5843 5843 5843 5843 5843 5843 5843 5843 5843 5843 5843 5842 5842 5842 5842 5841 5841 5840 5840 5839 5839 5838
5823 5824 5826 5827 5828 5830 5831 5833 5834 5835 5835 5836 5837 5837 5837 5838 5838 5838 5838 5839 5839 5839 5839 5839 5839 5839 5839 5839 5839 5839 5839 5839 5839 5838 5838 5838 5838 5837 5837 5836 5836 5835 5835
5818 5819 5821 5822 5824 5825 5827 5828 5829 5830 5831 5832 5832 5833 5833 5833 5833 5833 5834 5834 5834 5834 5834 5834 5835 5835 5835 5835 5835 5835 5835 5834 5834 5834 5834 5834 5833 5833 5832 5832 5832 5831 5830
5812 5814 5816 5817 5819 5820 5822 5823 5824 5825 5826 5827 5827 5828 5828 5828 5829 5829 5829 5829 5829 5829 5830 5830 5830 5830 5830 5830 5830 5830 5829 5829 5829 5829 5828 5828 5828 5828 5828 5827 5827 5826 5826
5806 5808 5810 5811 5813 5815 5816 5818 5819 5820 5821 5821 5822 5822 5823 5823 5823 5824 5824 5824 5824 5824 5824 5824 5824 5824 5824 5824 5824 5824 5823 5823 5823 5823 5822 5822 5822 5822 5822 5821 5821 5821 5820
5800 5802 5804 5806 5807 5809 5810 5812 5813 5814 5815 5816 5816 5817 5817 5817 5818 5818 5818 5818 5818 5818 5818 5818 5818 5818 5818 5818 5818 5817 5817 5817 5817 5816 5816 5816 5816 5815 5815 5815 5815 5815 5814
5795 5796 5798 5800 5801 5803 5804 5805 5807 5808 5808 5809 5810 5810 5811 5811 5811 5811 5811 5811 5811 5811 5811 5811 5811 5811 5811 5811 5811 5810 5810 5810 5810 5809 5809 5809 5809 5809 5808 5808 5808 5808 5808
5788 5790 5792 5793 5795 5796 5798 5799 5800 5801 5801 5802 5803 5803 5804 5804 5804 5804 5804 5804 5804 5804 5804 5804 5804 5804 5804 5804 5804 5804 5803 5803 5802 5802 5802 5802 5801 5801 5801 5801 5801 5801 5801
5781 5783 5785 5786 5788 5789 5791 5792 5793 5794 5794 5795 5795 5795 5796 5796 5797 5797 5797 5797 5796 5797 5797 5797 5797 5797 5797 5797 5797 5796 5796 5796 5795 5794 5794 5794 5793 5793 5793 5793 5793 5793 5793
5773 5776 5777 5779 5781 5782 5783 5784 5785 5786 5787 5787 5787 5787 5788 5788 5789 5789 5789 5789 5789 5789 5789 5789 5789 5789 5789 5789 5789 5788 5788 5787 5787 5786 5786 5786 5786 5785 5785 5785 5785 5785 5785
5765 5768 5770 5771 5773 5774 5775 5776 5777 5778 5779 5779 5779 5779 5779 5780 5780 5781 5781 5781 5781 5780 5781 5780 5780 5780 5780 5780 5780 5779 5779 5778 5778 5778 5777 5777 5777 5777 5776 5776 5776 5776 5776
5757 5759 5761 5763 5764 5765 5766 5767 5768 5769 5770 5770 5770 5770 5770 5770 5771 5772 5772 5772 5772 5772 5772 5771 5771 5771 5771 5771 5771 5770 5770 5769 5769 5768 5768 5768 5767 5767 5767 5767 5767 5766 5766
5748 5750 5752 5754 5755 5756 5757 5758 5759 5759 5760 5760 5760 5761 5761 5761 5761 5762 5762 5763 5763 5762 5762 5762 5762 5762 5762 5761 5761 5761 5760 5760 5759 5759 5758 5758 5757 5757 5757 5757 5757 5757 5757
5740 5741 5743 5744 5746 5747 5747 5748 5748 5749 5750 5750 5750 5750 5751 5751 5751 5752 5752 5753 5753 5752 5752 5752 5752 5752 5751 5751 5751 5751 5750 5750 5749 5749 5748 5748 5747 5747 5747 5747 5747 5747 5747
5730 5732 5733 5734 5736 5737 5737 5738 5738 5739 5739 5739 5739 5740 5741 5741 5741 5742 5742 5742 5742 5742 5742 5742 5742 5741 5741 5740 5740 5740 5740 5739 5739 5738 5738 5737 5737 5736 5736 5736 5736 5736 5736
5720 5722 5723 5724 5725 5726 5726 5727 5728 5728 5728 5729 5729 5729 5729 5730 5731 5731 5731 5731 5731 5731 5731 5731 5731 5731 5730 5729 5729 5729 5729 5729 5728 5727 5727 5726 5725 5725 5725 5724 5724 5725 5725
5710 5711 5713 5714 5715 5715 5716 5716 5717 5717 5717 5718 5718 5718 5718 5719 5719 5720 5720 5720 5720 5720 5720 5720 5720 5719 5718 5718 5718 5717 5717 5717 5717 5716 5715 5714 5714 5713 5713 5713 5712 5713 5713
5699 5701 5702 5703 5703 5704 5704 5704 5705 5705 5706 5706 5706 5706 5707 5707 5708 5708 5708 5708 5708 5708 5708 5708 5707 5707 5707 5706 5705 5704 5705 5706 5704 5703 5702 5702 5701 5701 5700 5700 5700 5701 5701
5688 5689 5690 5690 5691 5691 5692 5692 5692 5692 5693 5694 5694 5694 5694 5695 5695 5695 5696 5696 5696 5696 5695 5695 5694 5694 5694 5693 5691 5691 5691 5692 5692 5692 5690 5689 5689 5689 5688 5688 5688 5688 5689
5677 5677 5678 5678 5679 5679 5679 5679 5679 5680 5681 5681 5681 5682 5682 5681 5682 5682 5683 5683 5682 5682 5681 5681 5680 5680 5680 5679 5679 5677 5677 5678 5678 5679 5679 5677 5676 5676 5676 5676 5676 5676 5676
5666 5666 5666 5666 5666 5666 5666 5666 5666 5666 5667 5667 5667 5668 5668 5668 5668 5669 5669 5669 5668 5667 5667 5667 5667 5666 5666 5665 5665 5665 5664 5664 5664 5664 5665 5666 5665 5664 5664 5664 5664 5664 5664
5655 5654 5654 5653 5653 5653 5653 5652 5652 5653 5653 5653 5653 5654 5654 5654 5655 5655 5655 5655 5655 5654 5653 5653 5653 5653 5652 5653 5653 5652 5652 5651 5651 5650 5651 5653 5653 5653 5652 5652 5652 5652 5652